Weather History for Siloam Springs, AR

Change the Weather History Date:

Thursday, January 16, 2014

  Actual Average Record
Temperature  
Mean Temperature 42 °F -  
Max Temperature 51 °F 44 °F 66 °F (2006)
Min Temperature 33 °F 27 °F 10 °F (1997)
Degree Days  
Heating Degree Days 23    
Moisture  
Dew Point 20 °F    
Average Humidity 42    
Maximum Humidity 60    
Minimum Humidity 26    
Precipitation  
Precipitation 0.00 in - - ()
Sea Level Pressure  
Sea Level Pressure 29.97 in    
Wind  
Wind Speed 12 mph (WSW)    
Max Wind Speed 25 mph    
Max Gust Speed 37 mph    
Visibility 10 miles    
Events      
Averages and records for this station are not official NWS values.
T = Trace of Precipitation, MM = Missing Value Source: NWS Daily Summary

Daily Weather History Graph

Daily Weather History Graph

Search for Another Location

Airport:

Trip Planner

Search our weather history database for the weather conditions in past years. The results will help you decide how hot, cold, wet, or windy it might be!

Date:

Astronomy

Jan. 16, 2014 Rise Set
Actual Time 7:27 AM CST 5:27 PM CST
Civil Twilight 7:00 AM CST 5:55 PM CST
Nautical Twilight 6:28 AM CST 6:27 PM CST
Astronomical Twilight 5:57 AM CST 6:58 PM CST
Moon 6:17 PM CST (1/16) 7:24 AM CST (1/16)
Length of Visible Light 10h 55m
Length of Day
9h 59m
Full, 100% of the Moon is Illuminated
Jan 16
Full
Jan 23
Last Quarter
Jan 30
New
Feb 6
First Quarter
Feb 14
Full

Hourly Weather History & Observations

Time (CST) Temp. Windchill Dew Point Humidity Pressure Visibility Wind Dir Wind Speed Gust Speed Precip Events Conditions
12:15 AM 37.4 °F 30.3 °F 17.6 °F 45% 29.96 in 10.0 mi South 10.4 mph 16.1 mph N/A   Mostly Cloudy
12:35 AM 37.4 °F 30.3 °F 19.4 °F 48% 29.95 in 10.0 mi South 10.4 mph - N/A   Overcast
12:55 AM 37.4 °F 29.8 °F 19.4 °F 48% 29.95 in 10.0 mi South 11.5 mph - N/A   Overcast
1:15 AM 39.2 °F 31.6 °F 19.4 °F 45% 29.94 in 10.0 mi South 12.7 mph - N/A   Overcast
1:35 AM 39.2 °F 31.6 °F 19.4 °F 45% 29.93 in 10.0 mi South 12.7 mph - N/A   Overcast
1:55 AM 39.2 °F 32.0 °F 19.4 °F 45% 29.93 in 10.0 mi South 11.5 mph - N/A   Scattered Clouds
2:15 AM 39.2 °F 32.5 °F 19.4 °F 45% 29.93 in 10.0 mi South 10.4 mph - N/A   Mostly Cloudy
2:35 AM 39.2 °F 32.0 °F 19.4 °F 45% 29.92 in 10.0 mi South 11.5 mph - N/A   Overcast
2:55 AM 39.2 °F 31.2 °F 19.4 °F 45% 29.92 in 10.0 mi South 13.8 mph - N/A   Overcast
3:15 AM 37.4 °F 29.8 °F 19.4 °F 48% 29.92 in 10.0 mi South 11.5 mph - N/A   Scattered Clouds
3:35 AM 37.4 °F 29.3 °F 19.4 °F 48% 29.91 in 10.0 mi South 12.7 mph - N/A   Partly Cloudy
3:55 AM 37.4 °F 29.8 °F 19.4 °F 48% 29.90 in 10.0 mi South 11.5 mph - N/A   Clear
4:15 AM 35.6 °F 29.9 °F 19.4 °F 52% 29.90 in 10.0 mi SSW 6.9 mph - N/A   Clear
4:35 AM 35.6 °F 30.7 °F 19.4 °F 52% 29.91 in 10.0 mi SSW 5.8 mph - N/A   Clear
4:55 AM 35.6 °F 29.9 °F 19.4 °F 52% 29.92 in 10.0 mi South 6.9 mph - N/A   Clear
5:15 AM 33.8 °F 27.0 °F 19.4 °F 56% 29.91 in 10.0 mi South 8.1 mph - N/A   Clear
5:35 AM 35.6 °F 30.7 °F 19.4 °F 52% 29.90 in 10.0 mi South 5.8 mph - N/A   Clear
5:55 AM 33.8 °F 28.6 °F 19.4 °F 56% 29.91 in 10.0 mi SSW 5.8 mph - N/A   Clear
6:15 AM 33.8 °F 27.7 °F 19.4 °F 56% 29.91 in 10.0 mi SSW 6.9 mph - N/A   Clear
6:35 AM 33.8 °F 27.7 °F 17.6 °F 52% 29.91 in 10.0 mi SSW 6.9 mph - N/A   Clear
6:55 AM 33.8 °F 28.6 °F 19.4 °F 56% 29.90 in 10.0 mi South 5.8 mph - N/A   Clear
7:15 AM 33.8 °F 28.6 °F 19.4 °F 56% 29.92 in 10.0 mi SSW 5.8 mph - N/A   Clear
7:35 AM 33.8 °F - 19.4 °F 56% 29.93 in 10.0 mi Calm Calm - N/A   Clear
7:55 AM 33.8 °F - 19.4 °F 56% 29.94 in 10.0 mi Calm Calm - N/A   Clear
8:15 AM 33.8 °F 27.7 °F 21.2 °F 60% 29.95 in 10.0 mi SSW 6.9 mph - N/A   Clear
8:35 AM 37.4 °F 32.8 °F 23.0 °F 56% 29.95 in 10.0 mi SSW 5.8 mph - N/A   Clear
8:55 AM 39.2 °F 34.2 °F 23.0 °F 52% 29.96 in 10.0 mi SSW 6.9 mph - N/A   Clear
9:15 AM 41.0 °F 35.2 °F 24.8 °F 53% 29.98 in 10.0 mi WSW 9.2 mph - N/A   Clear
9:35 AM 42.8 °F 36.2 °F 24.8 °F 49% 30.00 in 10.0 mi West 12.7 mph 16.1 mph N/A   Clear
9:55 AM 44.6 °F 38.4 °F 26.6 °F 49% 30.00 in 10.0 mi West 12.7 mph - N/A   Clear
10:15 AM 46.4 °F 41.1 °F 26.6 °F 46% 30.01 in 10.0 mi West 11.5 mph - N/A   Clear
10:35 AM 48.2 °F - 28.4 °F 46% 30.00 in 10.0 mi West 16.1 mph 20.7 mph N/A   Clear
10:55 AM 50.0 °F - 26.6 °F 40% 30.00 in 10.0 mi WNW 23.0 mph 29.9 mph N/A   Clear
11:15 AM 51.8 °F - 26.6 °F 38% 29.99 in 10.0 mi WNW 23.0 mph 28.8 mph N/A   Clear
11:35 AM 51.8 °F - 26.6 °F 38% 29.99 in 10.0 mi WNW 18.4 mph 28.8 mph N/A   Clear
11:55 AM 50.0 °F - 24.8 °F 37% 29.97 in 10.0 mi WNW 19.6 mph 31.1 mph N/A   Clear
12:15 PM 51.8 °F - 24.8 °F 35% 29.97 in 10.0 mi WNW 24.2 mph 31.1 mph N/A   Clear
12:35 PM 51.8 °F - 24.8 °F 35% 29.95 in 10.0 mi West 25.3 mph 29.9 mph N/A   Scattered Clouds
12:55 PM 51.8 °F - 24.8 °F 35% 29.95 in 10.0 mi West 24.2 mph 35.7 mph N/A   Partly Cloudy
1:15 PM 51.8 °F - 24.8 °F 35% 29.95 in 10.0 mi West 18.4 mph 32.2 mph N/A   Clear
1:35 PM 51.8 °F - 21.2 °F 30% 29.95 in 10.0 mi West 19.6 mph 28.8 mph N/A   Scattered Clouds
1:55 PM 51.8 °F - 23.0 °F 33% 29.95 in 10.0 mi West 23.0 mph 33.4 mph N/A   Mostly Cloudy
2:15 PM 51.8 °F - 19.4 °F 28% 29.95 in 10.0 mi West 21.9 mph 29.9 mph N/A   Partly Cloudy
2:35 PM 51.8 °F - 21.2 °F 30% 29.95 in 10.0 mi West 21.9 mph 27.6 mph N/A   Clear
2:55 PM 51.8 °F - 19.4 °F 28% 29.95 in 10.0 mi West 23.0 mph 36.8 mph N/A   Clear
3:15 PM 51.8 °F - 19.4 °F 28% 29.95 in 10.0 mi West 24.2 mph 32.2 mph N/A   Clear
3:35 PM 51.8 °F - 17.6 °F 26% 29.95 in 10.0 mi West 16.1 mph 27.6 mph N/A   Clear
3:55 PM 50.0 °F - 15.8 °F 26% 29.96 in 10.0 mi West 18.4 mph 29.9 mph N/A   Clear
4:15 PM 50.0 °F - 17.6 °F 28% 29.97 in 10.0 mi West 17.3 mph 24.2 mph N/A   Clear
4:35 PM 48.2 °F - 15.8 °F 27% 29.97 in 10.0 mi West 17.3 mph 26.5 mph N/A   Clear
4:55 PM 48.2 °F - 15.8 °F 27% 29.97 in 10.0 mi West 18.4 mph 21.9 mph N/A   Partly Cloudy
5:15 PM 46.4 °F 39.8 °F 17.6 °F 32% 29.98 in 10.0 mi West 16.1 mph 32.2 mph N/A   Mostly Cloudy
5:35 PM 46.4 °F 39.2 °F 19.4 °F 34% 29.98 in 10.0 mi WNW 18.4 mph 27.6 mph N/A   Overcast
5:55 PM 44.6 °F 38.1 °F 19.4 °F 37% 29.98 in 10.0 mi West 13.8 mph - N/A   Mostly Cloudy
6:15 PM 44.6 °F 39.2 °F 19.4 °F 37% 29.98 in 10.0 mi WSW 10.4 mph - N/A   Partly Cloudy
6:35 PM 44.6 °F 39.7 °F 19.4 °F 37% 29.98 in 10.0 mi WSW 9.2 mph - N/A   Clear
6:55 PM 41.0 °F 35.8 °F 19.4 °F 42% 29.98 in 10.0 mi WSW 8.1 mph - N/A   Clear
7:15 PM 39.2 °F 35.0 °F 19.4 °F 45% 29.98 in 10.0 mi WSW 5.8 mph - N/A   Partly Cloudy
7:35 PM 39.2 °F 34.2 °F 19.4 °F 45% 29.99 in 10.0 mi SW 6.9 mph - N/A   Scattered Clouds
7:55 PM 42.8 °F 37.0 °F 19.4 °F 39% 29.99 in 10.0 mi WSW 10.4 mph - N/A   Scattered Clouds
8:15 PM 42.8 °F 34.8 °F 17.6 °F 36% 30.00 in 10.0 mi West 17.3 mph 21.9 mph N/A   Clear
8:35 PM 42.8 °F 34.0 °F 17.6 °F 36% 30.02 in 10.0 mi WNW 20.7 mph 25.3 mph N/A   Clear
8:55 PM 42.8 °F 34.0 °F 17.6 °F 36% 30.04 in 10.0 mi WNW 20.7 mph 24.2 mph N/A   Clear
9:15 PM 41.0 °F 32.2 °F 17.6 °F 39% 30.05 in 10.0 mi WNW 18.4 mph 24.2 mph N/A   Clear
9:35 PM 39.2 °F 29.8 °F 15.8 °F 39% 30.06 in 10.0 mi WNW 18.4 mph 23.0 mph N/A   Clear
9:55 PM 39.2 °F 32.0 °F 15.8 °F 39% 30.06 in 10.0 mi West 11.5 mph - N/A   Clear
10:15 PM 37.4 °F 28.9 °F 15.8 °F 41% 30.06 in 10.0 mi West 13.8 mph 20.7 mph N/A   Clear
10:35 PM 37.4 °F 28.5 °F 15.8 °F 41% 30.06 in 10.0 mi West 15.0 mph 19.6 mph N/A   Clear
10:55 PM 37.4 °F 30.3 °F 14.0 °F 38% 30.06 in 10.0 mi West 10.4 mph - N/A   Clear
11:15 PM 35.6 °F 27.1 °F 14.0 °F 41% 30.07 in 10.0 mi West 12.7 mph - N/A   Clear
11:35 PM 35.6 °F 25.2 °F 14.0 °F 41% 30.07 in 10.0 mi West 18.4 mph 23.0 mph N/A   Clear
11:55 PM 35.6 °F 25.5 °F 14.0 °F 41% 30.07 in 10.0 mi West 17.3 mph 23.0 mph N/A   Clear